Date,TemperatureHighF,TemperatureAvgF,TemperatureLowF,DewpointHighF,DewpointAvgF,DewpointLowF,HumidityHigh,HumidityAvg,HumidityLow,PressureMaxIn,PressureMinIn,WindSpeedMaxMPH,WindSpeedAvgMPH,GustSpeedMaxMPH,PrecipitationSumIn
2013-1-1,68.7,58.5,48.9,64.4,56.5,46.9,97,93,85,30.13,29.90,22,6,22,0.00
2013-1-2,48.9,44.7,41.0,47.3,41.9,37.8,94,90,85,30.27,30.09,20,7,20,0.00
2013-1-3,52.9,43.6,38.3,38.1,34.6,30.2,89,71,51,30.40,30.23,16,6,18,0.00
2013-1-4,56.1,46.5,36.7,38.5,33.3,29.5,82,61,38,30.48,30.33,13,3,14,0.00
2013-1-5,53.8,48.9,45.5,45.1,38.8,34.5,90,69,53,30.36,30.22,10,3,10,0.00
2013-1-6,53.4,48.2,45.5,47.8,45.4,41.7,96,90,79,30.30,30.18,15,4,15,0.00
2013-1-7,60.4,50.3,39.7,45.9,41.2,37.6,93,72,43,30.33,30.15,13,3,14,0.00
2013-1-8,63.1,57.0,52.0,62.2,52.7,42.6,97,86,66,30.19,30.04,16,4,19,0.00
2013-1-9,65.8,63.4,61.2,65.3,62.6,60.3,98,97,96,30.16,30.05,18,5,19,0.00
2013-1-10,70.5,65.9,63.3,69.6,64.9,62.2,98,97,94,30.15,29.92,23,5,24,0.00
2013-1-11,70.5,66.9,62.6,69.8,65.8,61.7,98,96,91,30.09,29.98,12,3,12,0.00
2013-1-12,76.8,71.6,67.8,70.9,68.7,66.2,98,91,72,30.03,29.87,21,6,22,0.00
2013-1-13,76.3,63.2,47.7,72.1,60.8,46.0,96,92,81,30.12,29.79,26,8,27,0.00
2013-1-14,47.7,43.5,38.3,46.0,42.2,37.0,97,95,91,30.17,30.06,23,6,23,0.00
2013-1-15,43.9,41.9,38.1,43.2,41.0,37.0,97,96,94,30.10,29.97,19,5,19,0.00
2013-1-16,39.0,37.7,36.5,37.6,36.2,34.9,96,94,92,30.19,30.02,19,8,20,0.00
2013-1-17,54.0,44.2,35.6,38.3,36.0,29.3,96,75,46,30.44,30.17,20,5,20,0.00
2013-1-18,59.0,47.5,38.8,41.5,36.9,29.8,91,69,35,30.53,30.39,14,3,14,0.00
2013-1-19,65.3,52.1,38.5,50.0,44.0,36.7,94,75,54,30.39,30.22,11,2,11,0.00
2013-1-20,67.1,53.4,40.5,48.0,42.6,38.5,96,71,36,30.27,30.13,9,1,9,0.00
2013-1-21,67.5,55.5,44.8,49.5,45.5,41.4,90,71,45,30.23,30.13,10,2,10,0.00
2013-1-22,64.0,53.7,45.7,47.8,43.4,37.8,86,69,53,30.36,30.21,14,2,14,0.00
2013-1-23,70.9,58.9,47.7,54.0,49.6,44.1,96,74,41,30.39,30.27,15,3,15,0.00
2013-1-24,72.7,62.8,52.9,60.6,56.2,50.9,94,80,63,30.33,30.20,12,3,12,0.00
2013-1-25,74.8,64.9,57.0,61.3,58.3,54.5,95,80,62,30.25,30.12,21,5,21,0.00
2013-1-26,75.9,64.4,56.1,65.7,58.7,55.2,98,83,55,30.25,30.15,12,1,13,0.00
2013-1-27,74.3,65.4,57.4,62.6,59.5,56.1,96,82,62,30.25,30.15,15,4,15,0.00
2013-1-28,75.9,66.5,60.6,66.6,62.6,58.6,95,88,68,30.23,30.09,16,3,16,0.00
2013-1-29,77.7,70.9,65.3,70.5,67.3,64.0,97,89,75,30.09,29.74,25,7,25,0.00
2013-1-30,74.5,58.4,45.0,70.2,47.3,32.7,95,69,40,30.20,29.66,31,10,33,0.00
2013-1-31,61.0,50.0,39.7,40.1,34.1,26.6,90,58,28,30.34,30.19,14,2,14,0.00
2013-2-1,65.8,54.2,44.6,45.1,40.9,36.1,85,63,39,30.40,30.29,8,1,9,0.00
2013-2-2,70.7,57.7,45.9,53.8,48.4,42.6,91,73,44,30.32,30.17,13,3,13,0.00
2013-2-3,68.9,58.0,48.6,53.8,42.6,29.5,96,62,25,30.30,30.10,14,2,14,0.00
2013-2-4,62.1,54.3,47.7,54.7,48.7,36.7,95,82,62,30.10,29.94,10,1,10,0.00
2013-2-5,72.3,61.8,55.9,63.0,58.6,54.9,98,90,72,30.02,29.93,7,1,7,0.17
2013-2-6,66.7,59.7,54.7,62.4,57.7,53.4,98,93,84,30.11,29.95,13,3,14,0.00
2013-2-7,69.1,61.2,57.0,61.2,58.6,55.9,97,91,76,29.97,29.80,21,3,22,0.00
2013-2-8,68.4,59.7,55.6,61.0,56.0,50.5,98,88,73,30.17,29.96,20,4,20,0.00
2013-2-9,63.7,58.0,51.6,59.9,53.6,47.5,93,85,79,30.22,30.01,17,4,17,0.00
2013-2-10,77.2,70.1,61.3,71.6,67.2,59.7,96,91,82,30.01,29.86,24,7,27,0.00
2013-2-11,70.9,59.7,55.2,69.1,57.9,53.2,97,94,86,30.14,29.95,20,5,20,0.00
2013-2-12,70.7,59.9,55.4,69.6,58.8,52.3,98,96,90,30.05,29.73,25,4,25,0.00
2013-2-13,56.1,51.8,45.0,52.7,46.0,39.9,93,81,64,30.08,29.88,22,5,22,0.00
2013-2-14,59.7,49.7,39.6,43.0,40.5,37.4,95,73,44,30.17,30.06,10,1,10,0.00
2013-2-15,64.8,53.0,39.7,46.4,41.7,37.6,93,68,40,30.20,30.09,18,4,18,0.00
2013-2-16,52.7,47.5,40.6,42.4,30.5,20.7,75,53,32,30.34,30.20,28,7,29,0.00
2013-2-17,62.2,49.7,37.4,42.6,36.3,27.5,80,61,42,30.35,30.20,16,4,16,0.00
2013-2-18,65.8,58.6,48.7,63.0,53.0,41.9,91,82,70,30.21,29.94,23,6,23,0.00
2013-2-19,65.8,58.8,49.5,63.3,43.9,28.9,95,61,26,30.25,29.94,26,7,26,0.00
2013-2-20,58.5,51.7,44.1,40.8,32.9,27.5,61,49,35,30.25,29.99,18,5,18,0.00
2013-2-21,72.7,63.6,53.8,69.8,57.3,39.9,95,81,57,30.00,29.73,28,7,31,0.00
2013-2-22,72.1,62.8,55.6,69.8,55.7,47.8,93,79,50,29.98,29.84,18,4,18,0.00
2013-2-23,63.0,56.9,53.1,54.3,52.2,48.4,92,84,73,29.98,29.87,13,3,13,0.00
2013-2-24,70.0,58.1,46.9,59.2,52.7,44.8,96,83,63,29.99,29.71,16,3,17,0.00
2013-2-25,67.6,63.2,57.4,66.6,59.7,38.7,97,89,44,29.74,29.40,24,6,24,0.00
2013-2-26,59.5,53.0,46.8,46.2,39.9,35.4,76,61,50,29.93,29.59,26,7,27,0.00
2013-2-27,70.3,58.0,47.1,52.7,44.6,38.3,91,64,35,30.06,29.92,22,4,22,0.00
2013-2-28,54.3,48.4,44.4,39.4,35.4,30.6,75,61,49,30.18,30.06,16,5,17,0.00
2013-3-1,58.1,49.6,41.2,38.1,35.0,29.7,82,59,36,30.18,30.09,27,6,27,0.00
2013-3-2,45.0,40.7,34.0,33.8,30.4,27.7,87,67,54,30.27,30.17,22,4,22,0.00
2013-3-3,58.3,44.0,29.3,39.9,31.3,25.9,93,65,34,30.31,30.11,13,2,13,0.00
2013-3-4,70.9,59.1,43.5,59.2,51.0,39.7,91,76,58,30.12,29.91,24,7,25,0.00
2013-3-5,72.5,65.2,54.3,64.0,52.0,33.4,90,66,32,30.23,29.90,27,7,27,0.00
2013-3-6,61.2,51.8,40.5,35.2,30.2,27.0,66,45,28,30.36,30.22,18,4,18,0.00
2013-3-7,63.9,51.8,40.5,43.7,36.8,32.4,76,58,38,30.36,30.22,9,2,10,0.00
2013-3-8,70.0,57.4,42.6,50.2,43.5,35.8,94,64,35,30.30,30.13,9,1,9,0.00
2013-3-9,71.2,62.6,53.2,61.3,56.0,48.0,89,79,71,30.15,29.92,22,5,22,0.00
2013-3-10,77.0,67.8,55.8,66.2,61.9,53.8,95,82,60,29.96,29.82,29,7,29,0.00
2013-3-11,58.1,51.7,44.8,54.0,43.3,38.3,96,75,49,30.06,29.91,26,7,26,0.00
2013-3-12,66.0,53.8,40.6,41.7,39.1,35.8,91,61,35,30.23,30.05,15,3,15,0.00
2013-3-13,66.6,56.3,45.5,41.7,33.6,20.8,81,47,18,30.42,30.22,23,4,23,0.00
2013-3-14,69.1,56.7,44.4,47.1,32.9,22.5,74,42,26,30.45,30.28,11,2,11,0.00
2013-3-15,73.6,60.7,46.0,53.6,48.4,41.5,96,68,33,30.31,30.12,23,4,23,0.00
2013-3-16,75.6,64.7,52.9,59.7,55.3,51.4,96,74,49,30.14,29.93,20,4,20,0.00
2013-3-17,78.3,67.8,58.8,66.6,61.5,56.8,95,82,53,29.96,29.79,21,4,23,0.00
2013-3-18,81.9,73.7,67.8,69.6,67.2,63.1,94,81,60,29.91,29.75,18,5,18,0.00
2013-3-19,76.5,66.6,55.0,63.1,51.9,42.4,86,61,36,30.03,29.91,18,4,18,0.00
2013-3-20,71.6,61.8,53.6,57.2,40.1,27.1,84,48,20,30.19,29.99,22,5,22,0.00
2013-3-21,65.5,57.6,50.0,47.5,37.3,27.7,69,48,35,30.06,29.83,15,3,15,0.00
2013-3-22,77.9,66.4,56.8,68.9,61.2,47.5,94,84,69,29.88,29.73,13,3,15,0.00
2013-3-23,70.2,67.8,65.5,68.5,66.6,64.6,98,96,93,29.80,29.55,10,2,11,0.00
2013-3-24,69.4,60.3,47.7,68.7,49.1,32.2,98,70,32,30.05,29.60,29,10,29,0.00
2013-3-25,50.2,42.7,38.8,33.6,31.0,23.0,75,64,36,30.26,30.05,20,8,22,0.00
2013-4-8,81.0,75.3,68.5,65.8,64.7,63.3,90,70,59,29.99,29.89,19,6,22,0.00
2013-4-9,83.1,75.7,68.5,72.9,70.5,65.5,93,84,67,29.97,29.88,23,6,23,0.00
2013-4-10,81.9,76.3,72.9,73.0,71.1,69.4,91,84,71,29.94,29.78,22,8,24,0.00
2013-4-11,75.7,64.7,53.6,72.5,61.2,51.1,96,89,76,29.86,29.67,27,6,27,0.00
2013-4-12,74.8,60.5,47.7,54.7,48.8,41.7,97,70,35,30.01,29.86,14,2,14,0.00
2013-4-13,76.6,66.7,55.6,57.0,49.6,45.1,85,56,34,30.04,29.86,18,3,18,0.00
2013-4-14,75.6,65.3,57.0,65.8,61.2,55.6,96,87,71,29.90,29.73,23,3,23,0.00
2013-4-15,78.3,71.0,63.9,73.6,68.8,62.4,97,93,85,29.95,29.80,11,2,12,0.00
2013-4-16,82.8,76.8,72.9,74.8,73.0,71.6,97,89,75,30.06,29.94,15,5,15,0.00
2013-4-17,85.1,77.6,72.5,75.0,72.6,71.1,95,85,69,30.06,29.90,19,5,23,0.00
2013-4-18,82.2,75.8,56.7,73.2,70.5,55.0,94,84,72,29.91,29.75,28,8,28,0.00
2013-4-19,60.4,53.7,48.4,54.9,44.9,39.9,94,73,48,30.20,29.91,30,8,30,0.00
2013-4-20,70.0,57.0,43.0,50.4,43.7,37.9,94,65,36,30.28,30.11,16,2,16,0.00
2013-4-21,74.7,62.1,49.3,54.5,49.2,44.6,92,65,39,30.22,30.09,13,2,13,0.00
2013-4-22,79.0,66.7,53.4,65.8,56.7,50.9,94,73,45,30.14,29.99,14,2,14,0.00
2013-4-23,82.9,74.0,67.3,70.0,67.5,64.9,93,81,61,30.06,29.94,16,6,17,0.00
2013-4-24,72.1,65.0,57.4,69.3,62.5,53.8,97,92,86,30.20,29.96,44,5,44,0.00
2013-4-25,74.3,62.5,53.2,57.9,52.2,46.9,93,72,41,30.32,30.19,16,3,16,0.00
2013-4-26,77.7,68.9,59.5,67.8,59.2,48.7,90,72,60,30.26,30.17,14,3,14,0.00
2013-4-27,83.1,74.0,66.7,70.9,66.8,61.9,97,80,51,30.19,30.00,17,3,17,0.00
2013-4-28,76.8,71.2,64.8,70.3,67.2,62.8,96,88,70,30.05,29.91,13,2,13,0.00
2013-4-29,83.1,71.7,59.9,66.0,62.7,59.0,97,76,47,29.98,29.85,10,1,10,0.00
2013-4-30,74.7,69.8,66.6,70.3,67.3,64.9,97,92,82,29.91,29.81,21,2,21,0.00
2013-5-1,78.1,70.4,66.4,71.8,67.4,64.8,97,90,76,29.90,29.81,13,1,13,0.00
2013-5-2,77.7,69.1,63.7,68.9,65.7,62.2,96,89,68,29.96,29.86,12,2,12,0.00
2013-5-3,67.8,55.6,47.3,66.4,52.1,44.8,96,88,74,30.06,29.91,26,8,26,0.00
2013-5-4,72.5,58.5,44.1,54.0,45.8,38.5,96,68,32,30.05,29.87,20,3,20,0.00
2013-5-5,64.2,57.3,50.4,54.5,46.1,41.2,89,67,47,30.06,29.90,23,6,24,0.00
2013-5-6,75.9,62.9,49.8,58.1,51.5,46.8,92,69,45,30.07,29.94,18,3,18,0.00
2013-5-7,81.5,69.4,56.5,62.1,58.3,55.0,96,70,45,30.06,29.97,13,2,13,0.00
2013-5-8,82.6,71.4,59.4,66.0,61.7,57.9,96,74,46,30.11,30.02,14,2,14,0.00
2013-5-9,81.9,73.4,64.8,70.0,66.6,61.3,96,80,53,30.09,29.99,16,4,16,0.00
2013-5-10,73.2,68.1,64.0,70.9,66.4,63.0,97,94,89,30.06,29.85,38,4,44,0.02
2013-5-11,78.1,70.0,63.1,70.2,66.1,62.1,97,88,75,30.10,29.94,30,2,38,0.00
2013-5-12,79.2,70.1,61.2,65.1,60.3,52.5,95,73,50,30.17,30.06,17,4,17,0.00
2013-5-13,79.0,68.0,57.6,58.1,50.2,44.8,78,55,34,30.30,30.17,11,2,11,0.00
2013-5-14,84.0,71.8,59.2,63.7,58.1,52.5,94,66,36,30.28,30.14,12,2,12,0.00
2013-5-15,81.9,71.4,61.2,68.2,62.8,59.2,95,76,50,30.19,30.01,13,2,14,0.00
2013-5-16,82.6,73.9,65.1,69.1,66.0,61.5,94,78,51,30.04,29.89,16,4,16,0.00
2013-5-17,86.4,78.0,70.9,73.6,71.3,68.5,95,81,60,30.01,29.93,19,4,19,0.00
2013-5-18,87.6,79.6,73.6,73.8,72.0,69.8,95,79,58,30.06,29.97,15,4,15,0.00
2013-5-19,87.3,79.2,72.9,75.0,72.8,71.1,96,82,62,30.00,29.92,20,5,20,0.00
2013-5-20,87.4,80.5,74.7,75.7,74.3,73.0,95,82,65,29.99,29.88,17,6,17,0.00
2013-5-21,88.3,80.6,74.8,75.6,73.8,71.1,95,81,59,29.95,29.79,18,5,19,0.00
2013-5-22,81.1,74.2,67.5,73.6,70.6,66.2,97,89,75,29.99,29.86,25,3,25,0.00
2013-5-23,89.8,76.8,69.4,76.8,71.9,65.5,98,86,59,30.08,29.95,17,2,17,0.00
2013-5-24,90.3,78.4,67.3,75.6,70.7,65.5,97,78,58,30.15,30.04,13,1,13,0.00
2013-5-25,85.6,78.0,71.1,70.9,66.6,58.6,84,68,55,30.22,30.10,11,2,11,0.00
2013-5-26,85.6,77.1,70.2,72.3,69.3,66.9,94,78,56,30.18,30.08,13,2,13,0.00
2013-5-27,87.1,78.3,69.6,72.3,69.5,66.6,93,76,58,30.12,29.99,15,3,17,0.00
2013-5-28,84.7,77.7,69.4,73.8,70.4,67.3,95,79,63,30.06,29.96,16,4,16,0.00
2013-5-29,84.7,77.1,72.1,76.5,73.0,67.8,96,87,73,30.00,29.91,24,3,24,0.00
2013-5-30,86.7,79.7,74.3,76.6,74.6,72.5,96,85,68,29.98,29.90,20,4,20,0.00
2013-5-31,87.4,80.7,74.8,78.1,75.3,73.2,96,84,69,29.99,29.91,18,4,18,0.00
2013-6-1,90.1,82.1,74.8,76.8,74.9,73.2,96,80,60,29.96,29.88,14,3,14,0.00
2013-6-2,84.0,78.1,69.4,76.8,73.7,68.0,96,87,70,30.03,29.86,22,2,23,0.00
2013-6-3,90.0,82.0,73.9,75.2,74.0,71.8,96,78,59,29.93,29.83,12,2,12,0.00
2013-6-4,92.1,83.3,75.0,77.5,74.9,69.4,95,77,49,29.93,29.83,10,2,11,0.00
2013-6-5,91.0,82.8,76.3,78.1,76.0,74.5,95,81,62,29.91,29.78,12,2,13,0.00
2013-6-6,89.1,79.9,70.3,77.4,73.5,68.4,95,82,60,29.88,29.69,27,3,27,0.00
2013-6-7,86.4,77.5,70.9,73.0,71.1,68.9,97,82,58,29.90,29.80,13,3,13,0.00
2013-6-8,87.6,78.4,72.9,77.0,71.5,68.9,91,80,57,29.96,29.88,23,2,25,0.00
2013-6-9,89.8,78.4,72.7,76.8,72.5,68.7,96,84,60,29.97,29.87,23,2,23,0.00
2013-6-10,89.8,81.1,73.8,78.1,75.6,72.5,97,84,59,30.02,29.95,15,2,15,0.00
2013-6-11,93.0,84.6,77.9,79.3,76.6,72.5,95,79,54,30.08,29.98,13,2,13,0.00
2013-6-12,93.4,84.4,76.6,78.3,75.7,70.7,95,77,50,30.09,29.99,9,2,10,0.00
2013-6-13,92.7,84.3,75.9,78.4,75.9,73.9,96,78,57,30.06,29.89,12,2,12,0.00
2013-6-14,95.0,85.7,77.7,80.4,77.1,71.4,94,77,60,29.95,29.83,15,4,15,0.00
2013-6-15,95.2,84.0,75.6,78.3,72.9,68.2,87,70,45,30.00,29.90,11,2,11,0.00
2013-6-16,92.7,84.8,79.0,78.8,76.8,74.5,92,78,59,30.04,29.94,14,3,15,0.00
2013-6-17,91.6,83.4,75.6,77.4,74.8,69.8,95,77,50,30.02,29.91,19,3,19,0.00
2013-6-18,91.0,82.9,74.8,76.6,74.3,70.5,92,76,58,30.00,29.87,21,4,21,0.00
2013-6-19,84.4,77.2,72.9,76.8,73.4,70.5,95,88,76,30.06,29.93,11,1,11,0.00
2013-6-20,89.4,80.9,74.5,78.3,75.2,69.8,96,84,62,30.12,30.00,26,2,26,0.00
2013-6-21,91.8,82.0,73.8,77.9,75.0,72.5,96,81,58,30.11,30.03,11,1,11,0.00
2013-6-22,90.7,81.1,74.7,78.3,74.7,68.5,96,82,59,30.09,29.98,27,1,27,0.00
2013-6-23,91.9,81.2,74.8,77.2,74.7,70.5,95,82,51,30.06,29.99,18,2,18,0.00
2013-6-24,89.1,82.5,76.6,77.9,75.5,72.5,94,80,59,30.12,30.02,16,2,16,0.00
2013-6-25,90.7,83.6,76.5,77.7,74.6,70.0,93,76,53,30.09,29.98,13,2,13,0.00
2013-6-26,93.6,84.8,75.9,77.4,74.8,71.2,93,74,50,30.05,29.93,11,2,11,0.00
2013-6-27,93.7,85.2,76.5,79.3,76.8,74.3,94,77,57,30.02,29.91,13,2,13,0.00
2013-6-28,93.4,85.6,77.5,79.3,77.3,75.4,95,78,58,29.95,29.76,15,4,16,0.00
2013-6-29,87.8,81.1,71.2,80.8,77.0,69.1,96,88,76,29.85,29.68,27,4,27,0.02
2013-6-30,90.9,82.9,74.5,78.8,71.4,61.9,97,71,40,29.81,29.71,18,3,18,0.00
2013-7-1,86.5,79.2,70.9,71.6,68.2,64.4,89,70,48,29.92,29.80,14,3,14,0.00
2013-7-2,88.5,80.4,70.2,70.7,68.8,66.4,91,69,49,29.99,29.90,11,2,12,0.00
2013-7-3,88.3,77.3,71.6,74.5,70.5,67.5,92,80,56,30.02,29.93,17,2,22,0.00
2013-7-4,89.8,80.6,72.0,75.6,72.3,68.5,94,77,51,29.97,29.90,13,2,13,0.00
2013-7-5,84.7,79.1,74.8,77.2,73.9,70.7,92,84,75,30.00,29.93,23,3,25,0.00
2013-7-6,87.3,78.5,73.6,77.5,74.3,71.1,94,87,67,29.99,29.92,12,2,13,0.00
2013-7-7,86.4,78.8,75.0,78.3,75.1,73.4,96,89,72,30.08,29.96,18,3,20,0.00
2013-7-8,90.7,79.7,73.9,78.6,74.8,72.5,96,86,63,30.15,30.04,15,2,18,0.00
2013-7-9,91.4,82.8,74.8,77.7,75.5,73.6,97,80,58,30.18,30.05,11,2,14,0.00
2013-7-10,92.5,86.6,78.3,78.8,76.9,74.5,95,74,59,30.11,29.95,11,3,11,0.00
2013-7-11,91.2,79.8,74.1,78.6,75.4,72.5,95,87,63,30.00,29.91,18,3,18,0.00
2013-7-12,94.3,82.4,72.9,80.8,74.3,70.9,97,78,51,29.95,29.83,18,3,18,0.00
2013-7-13,90.9,82.2,71.4,73.8,70.6,67.6,91,69,48,29.94,29.85,11,2,11,0.00
2013-7-14,90.1,79.0,74.1,76.8,72.8,68.5,93,82,59,29.99,29.89,27,2,27,0.00
2013-7-15,84.9,77.6,75.4,78.1,74.4,71.2,94,90,77,30.09,29.97,13,2,15,0.00
2013-7-16,85.8,79.0,74.1,78.3,75.2,72.7,96,89,73,30.15,30.06,23,2,23,0.00
2013-7-17,91.0,82.8,76.3,77.4,74.8,68.0,96,78,53,30.21,30.09,14,2,14,0.00
2013-7-18,90.0,80.5,73.6,77.4,74.4,70.2,95,83,62,30.17,29.99,22,1,22,0.00
2013-7-19,90.7,81.4,72.9,77.5,74.4,70.7,94,80,57,30.06,29.93,12,2,12,0.00
2013-7-20,90.0,81.8,74.1,77.9,74.6,69.8,95,80,53,30.00,29.90,16,2,17,0.00
2013-7-21,84.7,79.7,75.4,77.7,75.0,73.0,95,86,73,30.07,29.96,26,4,26,0.00
2013-7-22,89.1,82.4,76.8,80.8,77.7,71.2,96,86,68,30.05,29.98,30,4,30,0.02
2013-7-23,92.5,83.8,77.4,80.1,77.2,75.0,96,82,58,30.06,29.91,16,4,18,0.00
2013-7-24,91.6,83.6,77.7,79.0,76.7,73.8,94,81,62,29.99,29.87,17,4,17,0.00
2013-7-25,91.0,82.5,74.7,77.7,75.3,72.9,94,80,62,30.04,29.92,12,2,12,0.00
2013-7-26,92.8,81.9,73.0,77.5,74.6,70.5,94,80,59,30.06,29.94,11,1,17,0.00
2013-7-27,85.3,79.8,75.4,80.2,77.1,70.9,96,92,78,29.96,29.84,36,2,36,0.00
2013-7-28,91.9,81.9,73.4,77.0,74.8,72.3,97,81,57,30.00,29.88,13,1,13,0.00
2013-7-29,93.0,83.8,75.4,80.1,76.9,73.8,96,81,60,30.09,29.99,12,1,12,0.00
2013-7-30,92.8,84.4,76.8,78.6,77.1,74.1,95,80,61,30.14,30.04,9,2,10,0.00
2013-7-31,92.8,84.3,77.5,80.4,77.1,74.8,92,80,62,30.10,29.95,13,2,13,0.00
2013-8-1,92.5,84.2,77.2,79.7,76.7,71.2,94,79,62,30.03,29.90,11,3,13,0.00
2013-8-2,94.5,83.0,76.3,82.6,76.2,71.8,89,80,57,30.00,29.91,18,1,20,0.00
2013-8-3,94.5,85.0,76.3,79.9,77.0,74.7,96,78,55,30.06,29.97,10,2,10,0.00
2013-8-4,96.3,84.4,77.4,79.7,76.8,72.3,96,80,47,30.10,29.96,17,2,17,0.00
2013-8-5,93.9,84.5,76.8,80.4,77.4,75.0,95,80,56,30.06,29.94,15,3,15,0.00
2013-8-6,94.8,85.3,78.1,79.7,77.4,73.9,95,79,56,30.01,29.89,14,3,15,0.00
2013-8-7,94.6,85.5,77.5,79.7,77.0,73.9,95,78,52,29.98,29.87,8,2,12,0.00
2013-8-8,95.2,85.9,77.4,80.1,77.8,75.0,95,78,58,29.96,29.86,12,2,12,0.00
2013-8-9,91.2,82.6,75.6,80.6,77.8,73.4,94,86,65,30.01,29.91,26,1,26,0.00
2013-8-10,94.5,83.1,77.9,80.2,76.8,73.9,94,82,57,30.06,29.96,20,2,20,0.00
2013-8-11,89.1,81.2,77.4,79.2,76.9,74.8,94,87,67,30.10,30.03,14,2,16,0.00
2013-8-12,90.9,81.3,77.5,80.6,77.5,76.1,97,89,68,30.09,30.00,15,1,15,0.00
2013-8-13,91.6,80.0,72.1,81.1,76.6,70.7,97,90,65,30.04,29.92,26,3,26,0.00
2013-8-14,78.4,76.0,73.6,76.6,74.3,72.1,96,94,92,29.99,29.91,17,2,17,0.00
2013-8-15,88.3,79.3,73.0,76.8,73.8,69.8,97,84,56,30.00,29.91,15,2,15,0.00
2013-8-16,89.8,81.3,73.4,76.8,72.8,68.0,94,77,54,29.98,29.90,12,2,12,0.00
2013-8-17,88.5,79.5,73.2,77.0,73.1,70.9,94,81,63,29.97,29.90,15,2,16,0.00
2013-8-18,84.6,77.8,71.1,73.6,71.7,69.6,95,82,66,30.01,29.93,12,2,13,0.00
2013-8-19,89.2,79.6,73.0,76.6,73.3,71.2,95,82,59,30.05,29.95,8,1,9,0.00
2013-8-20,91.9,79.6,73.6,77.9,74.4,71.2,97,86,54,30.05,29.97,20,1,21,0.00
2013-8-21,90.0,80.7,75.0,79.3,75.9,73.8,97,86,64,30.10,30.01,22,2,22,0.00
2013-8-22,91.9,82.5,75.7,77.4,75.7,74.1,96,81,58,30.08,29.95,12,1,12,0.00
2013-8-23,91.6,82.3,75.6,78.3,75.5,73.6,96,81,59,30.00,29.90,16,2,18,0.00
2013-8-24,84.4,79.5,75.2,76.6,74.5,73.2,94,85,73,30.08,29.95,17,3,17,0.00
2013-8-25,85.5,78.8,74.7,77.7,74.5,72.5,95,87,71,30.14,30.06,16,4,16,0.00
2013-8-26,86.4,78.1,75.0,77.4,75.0,73.4,96,90,72,30.17,30.09,18,2,18,0.00
2013-8-27,89.1,80.1,72.3,74.1,71.5,68.7,97,77,54,30.12,30.02,11,1,12,0.00
2013-8-28,89.2,79.7,68.7,71.2,68.2,65.7,93,70,47,30.09,29.99,11,1,11,0.00
2013-8-29,88.5,79.5,69.1,72.7,69.3,66.4,92,73,52,30.08,29.97,9,1,9,0.00
2013-8-30,90.7,80.8,71.6,74.7,71.5,69.4,95,75,52,30.05,29.92,10,1,10,0.00
2013-8-31,91.8,82.5,72.1,77.0,73.9,70.7,95,77,56,29.98,29.85,12,1,12,0.00
2013-9-1,93.0,83.9,75.7,78.8,75.5,70.7,95,78,50,29.95,29.83,12,2,12,0.00
2013-9-2,93.9,83.9,76.3,78.6,75.6,71.8,95,78,51,29.99,29.84,13,2,13,0.00
2013-9-3,94.1,82.7,76.5,79.3,75.9,73.2,96,82,53,29.98,29.85,18,2,18,0.00
2013-9-4,93.0,81.5,75.7,78.1,75.6,73.8,96,83,58,30.05,29.94,17,1,17,0.00
2013-9-5,93.4,80.8,75.4,78.6,75.9,73.8,96,86,56,30.09,30.01,17,0,17,0.00
2013-9-6,91.0,81.5,75.6,78.4,75.6,71.6,96,84,61,30.10,29.97,17,1,17,0.00
2013-9-7,92.8,80.4,73.9,78.4,74.2,70.7,96,83,50,30.05,29.94,20,1,20,0.00
2013-9-8,91.9,78.8,71.6,75.2,72.3,69.8,95,82,55,30.00,29.91,12,1,17,0.00
2013-9-9,90.5,81.1,72.0,76.5,73.9,70.5,96,80,58,30.04,29.94,12,2,12,0.00
2013-9-10,91.0,82.2,73.2,77.7,74.9,71.4,95,80,58,30.10,30.00,18,2,18,0.00
2013-9-11,91.4,83.0,75.4,76.1,74.0,71.4,94,76,55,30.10,30.00,14,2,14,0.00
2013-9-12,94.3,83.0,73.0,76.1,72.4,65.1,95,73,41,30.04,29.90,10,1,11,0.00
2013-9-13,94.3,81.6,73.4,77.0,73.3,70.9,95,78,48,29.94,29.79,15,2,25,0.00
2013-9-14,90.0,80.1,74.5,75.6,73.1,69.6,95,80,57,29.96,29.85,15,2,15,0.00
2013-9-15,91.9,82.3,74.7,76.3,74.1,71.6,94,78,52,30.04,29.94,13,2,13,0.00
2013-9-16,91.9,82.7,75.2,77.5,74.3,71.1,94,77,53,30.07,29.97,12,2,12,0.00
2013-9-17,92.8,82.7,74.7,76.5,74.1,71.2,94,77,52,30.07,29.93,13,2,13,0.00
2013-9-18,90.5,82.3,76.8,78.8,75.7,73.9,93,81,61,30.04,29.94,18,3,18,0.00
2013-9-19,89.1,80.0,75.9,78.8,75.7,73.0,93,87,68,30.01,29.93,25,4,25,0.00
2013-9-20,89.4,82.1,77.2,79.3,77.5,75.7,96,86,69,29.96,29.78,19,4,19,0.00
2013-9-21,81.7,75.5,70.3,78.4,73.4,69.1,97,93,84,29.78,29.71,20,2,20,0.00
2013-9-22,79.5,73.9,69.1,69.6,67.3,63.9,96,81,68,29.83,29.74,17,3,17,0.00
2013-9-23,88.2,77.2,68.4,78.3,70.2,60.4,94,79,69,29.83,29.75,12,2,12,0.00
2013-9-24,90.1,80.8,75.4,79.9,76.5,73.4,97,87,69,29.83,29.76,22,3,22,0.00
2013-9-25,90.5,78.2,69.8,74.8,69.4,60.3,98,78,38,29.85,29.75,11,2,12,0.00
2013-9-26,88.2,76.7,65.3,71.1,66.7,61.3,95,74,44,29.94,29.81,11,1,13,0.01
2013-9-27,87.8,77.8,68.7,73.6,69.8,66.4,95,78,53,30.01,29.91,10,2,12,0.00
2013-9-28,87.1,79.5,72.0,72.3,70.1,66.9,94,75,53,30.06,29.96,12,2,12,0.00
2013-9-29,85.8,77.5,71.1,72.7,69.4,66.2,95,77,53,30.03,29.91,9,1,9,0.00
2013-9-30,83.3,75.6,72.3,75.9,72.2,67.5,96,89,74,29.94,29.88,20,2,20,0.01
2013-10-1,83.8,77.2,73.2,76.1,73.7,71.8,96,89,74,30.01,29.92,14,2,15,0.00
2013-10-2,85.3,78.5,73.6,76.1,74.0,70.5,96,87,71,30.03,29.94,15,2,17,0.00
2013-10-3,88.5,79.6,73.6,77.9,74.8,72.7,97,86,63,30.01,29.90,11,2,11,0.00
2013-10-4,86.2,78.5,74.3,76.6,74.7,72.9,96,89,72,30.01,29.92,21,3,21,0.00
2013-10-5,84.2,78.2,75.4,77.9,74.8,73.2,96,90,75,29.97,29.86,22,2,23,0.00
2013-10-6,76.5,71.8,60.6,74.1,66.8,55.0,96,85,61,29.99,29.84,23,5,23,0.00
2013-10-7,75.0,64.9,55.8,58.8,55.4,51.6,92,73,52,30.05,29.97,12,4,18,0.00
2013-10-8,76.8,67.0,58.5,61.2,57.0,53.6,86,71,51,30.07,29.98,13,2,13,0.00
2013-10-9,81.3,68.0,55.0,64.8,59.8,53.4,95,77,49,30.09,30.01,9,1,9,0.00
2013-10-10,81.5,71.4,63.9,70.7,66.0,61.2,97,84,61,30.10,29.98,8,1,8,0.00
2013-10-11,85.8,74.0,64.4,74.8,69.7,63.1,97,87,62,30.04,29.93,14,2,14,0.00
2013-10-12,88.2,77.3,69.3,76.1,71.2,68.0,97,83,55,30.12,29.96,13,2,13,0.00
2013-10-13,87.1,76.9,70.9,75.0,72.5,69.6,97,87,63,30.16,30.01,12,1,13,0.00
2013-10-14,85.1,76.9,70.9,71.6,68.5,65.7,95,77,54,30.11,29.99,9,1,9,0.00
2013-10-15,84.4,75.4,66.9,72.9,69.9,65.5,96,84,65,30.04,29.92,10,1,10,0.00
2013-10-16,81.9,75.7,70.7,73.9,71.6,68.9,96,88,75,30.00,29.88,13,2,13,0.00
2013-10-17,74.1,68.2,61.9,72.0,65.3,59.9,96,90,82,30.03,29.91,15,5,15,0.00
2013-10-18,73.8,66.0,59.4,63.5,59.1,55.8,95,79,59,30.05,29.92,16,2,16,0.00
2013-10-19,73.2,65.4,59.4,63.3,60.6,56.1,97,85,63,30.04,29.91,15,3,15,0.00
2013-10-20,73.0,62.5,53.4,58.3,55.0,50.7,92,78,52,30.09,29.97,12,1,12,0.00
2013-10-21,71.8,64.6,57.6,65.1,60.8,55.6,95,88,77,30.06,29.92,13,1,13,0.00
2013-10-22,76.5,66.8,58.6,66.2,62.3,56.8,96,86,60,30.03,29.94,21,4,21,0.00
2013-10-23,74.8,63.1,53.1,58.3,54.5,51.4,96,76,45,30.13,30.03,12,2,13,0.00
2013-10-24,80.2,65.1,51.1,62.6,55.5,49.1,96,74,44,30.22,30.12,10,1,10,0.00
2013-10-25,69.6,61.3,54.5,59.2,49.6,45.1,92,67,43,30.40,30.21,16,2,17,0.00
2013-10-26,75.2,61.8,49.8,58.1,49.6,41.5,88,65,44,30.30,30.14,9,1,10,0.00
2013-10-27,71.2,63.9,55.0,66.9,61.0,53.1,96,90,81,30.14,30.04,15,2,15,0.00
2013-10-28,82.2,72.2,63.7,70.0,66.5,62.2,96,83,60,30.17,30.04,9,2,9,0.00
2013-10-29,81.0,72.1,64.8,69.4,66.3,63.1,96,83,62,30.20,30.12,16,2,16,0.00
2013-10-30,79.7,72.7,67.3,71.8,68.5,65.1,96,87,70,30.17,29.99,19,4,19,0.00
2013-10-31,81.7,72.3,65.8,73.2,69.6,64.9,97,91,73,29.99,29.79,27,6,27,0.00
2013-11-1,75.0,65.0,56.3,64.8,59.1,54.5,98,83,52,29.95,29.83,13,2,13,0.00
2013-11-2,70.5,61.3,54.7,57.0,51.7,43.2,96,73,38,30.18,29.92,19,4,20,0.00
2013-11-3,66.6,56.8,49.1,50.2,46.4,43.3,91,69,46,30.25,30.12,13,2,13,0.00
2013-11-4,76.5,63.4,48.9,61.3,55.5,46.8,93,77,53,30.20,30.10,15,3,15,0.00
2013-11-5,74.7,68.6,64.4,66.6,63.3,58.5,94,83,75,30.17,30.08,21,4,21,0.00
2013-11-6,78.3,70.8,62.8,73.4,67.8,61.0,97,91,79,30.11,30.02,16,2,16,0.00
2013-11-7,68.0,57.8,49.6,66.0,49.8,42.4,95,76,51,30.33,30.10,26,8,26,0.00
2013-11-8,65.1,54.4,46.0,46.6,41.8,38.1,82,64,40,30.36,30.19,15,2,16,0.00
2013-11-9,72.9,59.5,45.7,58.1,50.9,43.0,91,74,55,30.25,30.14,8,1,8,0.00
2013-11-10,75.6,64.6,57.7,58.8,54.7,50.5,87,71,52,30.27,30.17,11,2,11,0.00
2013-11-11,75.0,62.1,50.2,57.2,52.9,48.0,93,74,46,30.25,30.13,7,1,8,0.00
2013-11-12,71.1,55.2,40.3,57.0,48.2,32.7,94,78,59,30.52,30.19,25,5,26,0.00
2013-11-13,57.0,44.6,34.2,32.7,29.4,25.7,77,57,31,30.56,30.41,17,3,18,0.00
2013-11-14,65.5,53.0,40.6,52.9,42.1,28.8,83,67,54,30.42,30.11,11,2,11,0.00
2013-11-15,75.9,65.6,58.3,66.7,60.5,52.9,95,84,71,30.12,29.95,10,2,11,0.00
2013-11-16,80.4,71.0,64.2,71.1,67.2,62.4,98,89,72,30.03,29.91,14,3,15,0.00
2013-11-17,81.7,75.0,70.2,75.6,72.6,68.7,97,92,81,29.96,29.86,17,4,19,0.00
2013-11-18,75.6,70.3,60.1,74.1,58.2,41.5,98,68,43,30.11,29.95,23,2,24,0.00
2013-11-19,65.8,57.5,51.4,43.3,38.7,32.5,65,50,31,30.17,30.05,18,3,18,0.00
2013-11-20,72.9,57.9,45.1,57.7,45.0,34.7,95,63,44,30.12,30.00,11,2,12,0.00
2013-11-21,70.9,65.1,59.4,67.1,63.1,57.7,97,93,87,30.17,30.07,15,3,15,0.00
2013-11-22,72.3,67.2,64.9,68.7,65.2,63.1,97,93,83,30.24,30.13,16,1,16,0.00
2013-11-23,65.1,55.9,47.5,63.3,53.9,41.9,97,93,81,30.36,30.16,23,6,23,0.00
2013-11-24,54.0,46.6,40.1,41.9,32.3,28.9,81,58,39,30.41,30.29,25,5,25,0.00
2013-11-25,48.0,45.3,42.3,45.9,38.7,28.4,97,79,56,30.31,29.90,23,4,23,0.00
2013-11-26,48.4,44.1,40.5,47.5,42.7,38.3,97,95,92,30.11,29.79,28,9,28,0.00
2013-11-27,47.1,40.4,32.7,38.8,32.6,27.9,94,75,50,30.43,30.11,20,7,20,0.00
2013-11-28,48.9,37.9,30.6,34.5,29.4,26.1,93,73,48,30.50,30.40,9,1,10,0.00
2013-11-29,60.3,43.2,29.8,37.4,31.8,25.9,95,70,30,30.54,30.42,10,1,10,0.00
2013-11-30,66.4,48.1,32.4,43.5,37.0,27.3,95,70,25,30.43,30.25,8,0,8,0.00
2013-12-1,69.1,54.8,38.5,54.3,46.6,36.7,95,76,52,30.28,30.00,10,1,10,0.00
2013-12-2,73.9,64.2,55.2,65.7,59.9,51.4,96,87,72,30.01,29.74,18,3,18,0.00
2013-12-3,79.5,69.9,63.1,70.2,66.1,62.2,98,89,62,29.79,29.69,22,4,22,0.00
2013-12-4,80.1,73.8,70.2,72.0,70.2,68.5,95,89,74,29.91,29.79,18,4,18,0.00
2013-12-5,82.0,75.0,71.1,73.6,71.6,69.4,95,90,71,29.99,29.88,20,5,20,0.00
2013-12-6,75.0,51.6,39.7,72.9,50.1,37.6,97,95,81,30.27,29.91,20,7,20,0.00
2013-12-7,39.7,38.0,36.0,38.1,35.9,33.1,97,92,88,30.37,30.25,19,5,20,0.00
2013-12-8,45.9,42.5,38.7,45.3,41.8,37.6,98,97,96,30.26,30.03,12,3,12,0.00
2013-12-9,51.4,48.1,40.6,50.0,47.1,39.9,98,96,93,30.17,30.06,20,4,20,0.00
2013-12-10,50.7,42.3,37.0,39.7,36.8,33.4,97,82,61,30.40,30.17,26,7,26,0.00
2013-12-11,51.1,44.7,35.1,44.8,39.1,32.9,93,81,71,30.44,30.33,14,2,14,0.00
2013-12-12,55.9,46.4,37.9,39.7,33.9,28.8,86,64,42,30.53,30.37,14,3,15,0.00
2013-12-13,61.2,50.6,39.6,56.5,41.6,27.5,89,71,57,30.37,29.91,15,3,15,0.00
2013-12-14,67.5,61.3,48.9,65.1,57.8,44.1,96,88,82,30.12,29.81,23,6,23,0.00
2013-12-15,52.3,45.5,38.1,44.1,38.5,35.4,91,77,60,30.32,30.12,24,6,24,0.00
2013-12-16,60.1,45.3,32.4,41.9,36.9,30.7,96,75,45,30.37,30.24,6,0,6,0.00
2013-12-17,64.8,48.6,33.1,46.4,40.1,31.8,97,76,43,30.36,30.24,12,1,13,0.00
2013-12-18,66.6,51.6,37.6,47.1,42.6,36.0,95,74,47,30.37,30.20,10,1,10,0.00
2013-12-19,71.4,61.7,48.4,61.0,55.9,45.1,92,82,66,30.20,30.00,15,3,15,0.00
2013-12-20,77.4,69.8,64.6,69.1,65.9,61.0,96,88,73,30.03,29.91,19,4,19,0.00
2013-12-21,78.6,72.8,62.4,72.0,68.9,61.0,95,88,75,29.91,29.69,30,8,30,0.00
2013-12-22,66.7,61.0,51.1,61.3,57.5,48.7,96,89,70,30.20,29.80,19,2,19,0.00
2013-12-23,50.9,43.3,35.6,48.6,37.2,30.9,92,80,61,30.51,30.18,22,9,22,0.00
2013-12-24,53.2,40.8,30.7,34.7,31.9,28.2,92,72,47,30.56,30.36,14,2,16,0.00
2013-12-25,49.3,41.5,33.3,34.3,30.3,27.0,79,65,45,30.42,30.31,10,2,10,0.00
2013-12-26,59.0,47.2,35.8,39.6,35.3,31.1,87,65,43,30.42,30.28,8,1,11,0.00
2013-12-27,55.6,49.6,43.5,38.7,37.3,35.1,81,63,48,30.44,30.29,13,2,13,0.00
2013-12-28,49.8,47.6,44.4,48.6,44.2,36.0,96,89,59,30.30,29.98,13,3,13,0.00
2013-12-29,62.4,50.6,43.5,46.9,44.2,41.7,97,81,47,30.14,30.00,10,2,10,0.00
2013-12-30,53.6,48.1,43.3,48.0,44.3,40.8,92,87,76,30.36,30.11,10,2,10,0.00
2013-12-31,46.4,43.6,40.6,41.9,39.2,37.0,91,85,75,30.43,30.30,11,2,12,0.00
2014-1-1,56.5,54.6,44.2,54.7,53.1,41.5,97,95,90,30.30,30.03,7,1,8,0.00
2014-1-2,57.2,50.7,37.2,56.3,42.9,26.8,98,76,49,30.39,29.97,32,7,32,0.00